Terminal Aerodrome Forecast
Issued by NWS Wilmington, OH

Current Version | Previous Version | Graphics & Text | Print | Product List | Glossary On
Versions: 1 2 3 4 5 6 7 8 9 10 11 12 13 14 15
000
FTUS41 KILN 020200 AAA
TAFDAY
TAF AMD
KDAY 020258Z 0203/0224 29006KT 4SM BR OVC020
     FM020500 29008KT P6SM BKN015
     FM021400 31005KT P6SM SCT020
      TEMPO 0214/0218 BKN020=

USA.gov is the U.S. government's official web portal to all federal, state and local government web resources and services.